{"data":{"norad_id":64842,"intl_designator":"2025-152A","name":"STARLINK-34723","alt_names":[],"object_type":"PAYLOAD","status":"ACTIVE","operator":null,"country":"US","launch_date":"2025-07-19","launch_site_code":"AFWTR","launch_vehicle":null,"mission":null,"orbit_class":"UNKNOWN","rcs_meters":null,"size_class":null,"mass_kg":null,"dimensions":null,"purposes":["comms"],"wikipedia_slug":null,"has_3d_model":false,"image_url":null,"decayed_at":null,"tle_current":{"epoch":"2026-09-20T13:13:40.751040Z","epoch_age_seconds":119909,"freshness":"FRESH","line1":"1 64842U 25152A   26263.55116610  .00010679  00000+0  33261-3 0  9993","line2":"2 64842  97.2849 114.1332 0001669  89.5302 270.6132 15.33448280 64839","mean_motion":15.3344828,"eccentricity":0.0001669,"inclination_deg":97.2849,"raan_deg":114.1332,"arg_perigee_deg":89.5302,"mean_anomaly_deg":270.6132,"bstar":0.00033261,"rev_number":6483,"period_min":93.906003794272,"perigee_km":464.39120693085,"apogee_km":466.67562411555,"semimajor_km":6843.6704155232,"source":"CELESTRAK","updated_at":"2026-09-21T09:00:35.448095Z"}}}